Location: Cr�cy
(49.4886°N, 3.3242°E)
Time: 22:22:31
(UTC+00:00)

Daily predictions for brighter satellites

Satellite Brightness Start Highest point End
(mag) Time Altitude Azimuth Time Altitude Azimuth Time Altitude Azimuth
Cosmos 1908 4.4 17:12:25 10° SE 17:15:28 22° E 17:18:32 10° NE
Cosmos 1953 2.3 17:11:59 10° S 17:16:03 82° E 17:20:09 10° NNE
Unknown 3.9 17:12:39 10° W 17:16:47 65° NNW 17:20:54 10° ENE
ASTEX 1 3.9 17:12:18 10° NNE 17:16:55 37° E 17:21:31 10° SSE
Cosmos 2278 Rocket 3.1 17:12:24 10° SSE 17:17:06 27° ESE 17:21:48 10° NE
Unknown 3.9 17:13:17 10° W 17:17:25 65° NNW 17:21:33 10° ENE
Cosmos 1626 3.9 17:15:21 10° NNW 17:18:50 37° W 17:22:17 10° SSW
Unknown 3.9 17:14:43 10° W 17:18:51 65° NNW 17:23:01 10° ENE
Unknown 3.9 17:16:35 10° W 17:20:43 64° NNW 17:24:53 10° ENE
Unknown 3.9 17:18:20 10° W 17:22:27 63° NNW 17:26:35 10° ENE
Cosmos 1844 3.8 17:17:39 10° SSW 17:23:23 85° ESE 17:29:12 10° NNE
Cosmos 1726 2.6 17:20:45 10° SSE 17:24:08 37° E 17:27:32 10° NNE
Unknown 3.9 17:20:07 10° W 17:24:14 61° NNW 17:28:21 10° ENE
Unknown 3.2 17:22:00 10° WNW 17:25:24 65° NNE 17:28:48 10° E
Abrixas rocket 3.6 17:22:58 10° SSW 17:25:30 23° SSE 17:28:02 10° E
SKYMED 2 4.2 17:21:39 10° NNE 17:25:38 34° E 17:29:34 10° SSE
Unknown 4.0 17:23:27 10° W 17:27:33 60° NNW 17:31:40 10° ENE
Unknown 3.9 17:23:35 10° W 17:27:42 61° NNW 17:31:49 10° ENE
Unknown 3.9 17:25:00 10° WNW 17:28:37 48° N 17:32:10 11° E
YAOGAN 1 3.1 17:25:04 10° SE 17:29:02 36° ENE 17:33:01 10° N
Unknown 4.0 17:25:00 10° W 17:29:06 60° NNW 17:33:13 10° ENE
FALCON 9 DEB 3.3 17:27:23 10° WNW 17:30:51 64° NNE 17:34:14 10° E
Cosmos 2084 4.1 17:27:17 10° WSW 17:31:46 60° NW 17:36:11 10° NE
Cosmos 2228 3.0 17:27:28 10° S 17:31:50 85° E 17:36:12 10° N
Unknown 4.0 17:28:13 10° W 17:32:20 60° NNW 17:36:21 11° ENE
CSL-04 Rocket 3.9 17:27:45 10° SE 17:33:02 48° ENE 17:38:17 10° N
Lacrosse 5 2.0 17:28:44 10° NW 17:33:47 62° NNE 17:38:48 10° ESE
Cosmos 1470 4.4 17:31:10 10° SW 17:34:54 38° WNW 17:38:39 10° N
H-2A R/B 3.9 17:33:37 10° ENE 17:35:44 12° NE 17:37:51 10° NNE
Unknown 4.0 17:31:39 10° W 17:35:45 58° N 17:39:37 11° ENE
Cosmos 2263 Rocket 4.3 17:31:37 10° W 17:36:00 23° NW 17:40:24 10° N
Unknown 4.0 17:33:21 10° W 17:37:27 58° N 17:41:15 12° ENE
Envisat 3.0 17:32:29 10° SSE 17:37:33 77° ENE 17:42:39 10° NNW
Cosmos 1726 Rocket 3.6 17:33:22 10° S 17:37:45 89° W 17:42:09 10° N
Unknown 4.0 17:35:02 10° W 17:39:07 57° N 17:42:51 12° ENE
Shenzhou-11 Module 4.0 17:37:11 10° SW 17:39:14 19° S 17:41:18 10° SE
Cosmos 921 Rocket 3.1 17:35:13 10° SSW 17:39:43 89° WNW 17:44:12 10° NNE
CENTAUR R/B 4.2 17:39:07 10° ESE 17:40:30 11° E 17:40:48 11° E
Unknown 4.0 17:36:42 10° W 17:40:47 57° N 17:44:27 13° ENE
Lacrosse 5 rocket 4.2 17:38:54 10° W 17:40:51 14° SW 17:42:52 10° SSW
Unknown 3.2 17:40:28 10° WNW 17:43:59 67° NNE 17:46:48 15° E
Unknown 4.0 17:40:04 10° W 17:44:09 56° N 17:47:39 14° ENE
Unknown 4.0 17:41:31 10° WNW 17:44:29 41° SSW 17:47:27 10° SE
Unknown 4.0 17:41:47 10° W 17:45:52 55° N 17:49:18 14° ENE
Cosmos 1356 3.3 17:42:35 10° S 17:45:59 69° E 17:49:26 10° NNE
Falcon 9 debris 3.1 17:43:23 10° WNW 17:46:51 79° NNE 17:49:37 15° ESE
Meteor 2-10 3.9 17:42:07 10° S 17:47:07 66° E 17:52:07 10° NNE
Unknown 4.0 17:43:22 10° W 17:47:28 55° N 17:50:50 15° ENE
Cosmos 1328 3.8 17:44:47 10° N 17:48:46 87° W 17:52:44 10° S
Unknown 4.0 17:45:00 10° W 17:49:05 55° N 17:52:23 15° ENE
Cosmos 1833 Rocket 2.7 17:44:10 10° NNW 17:49:47 67° ENE 17:55:23 10° SE
Unknown 4.1 17:46:17 10° W 17:50:22 55° N 17:53:38 15° ENE
Unknown 4.0 17:48:10 10° W 17:52:15 55° N 17:55:26 16° ENE
Unknown 4.1 17:51:32 10° W 17:55:37 54° N 17:58:39 17° ENE
YAOGAN 6 2.5 17:52:14 10° SSE 17:55:52 79° ENE 17:59:31 10° N
Cosmos 1939 Rocket 3.5 17:52:51 10° SE 17:56:30 35° ENE 18:00:13 10° N
Unknown 3.9 17:53:00 10° WNW 17:56:46 49° N 17:59:13 19° ENE
Unknown 4.1 17:53:12 10° W 17:57:17 54° N 18:00:14 18° ENE
USA 116 3.8 17:54:19 10° NNE 17:57:20 37° E 18:00:32 10° S
Unknown 4.1 17:55:07 10° W 17:59:11 53° N 18:02:03 18° ENE
Unknown 4.1 17:56:33 10° W 18:00:37 53° N 18:03:26 19° ENE
Cosmos 2058 Rocket 3.2 17:56:44 10° SSW 18:01:05 78° W 18:05:28 10° N
USA 238 DEB 4.1 17:55:30 10° S 18:01:39 41° ESE 18:08:02 10° NE
USA 238 4.1 17:55:37 10° S 18:01:47 40° ESE 18:08:08 10° NE
Unknown 4.1 17:58:11 10° W 18:02:15 53° N 18:05:00 19° ENE
Unknown 4.1 18:01:35 10° W 18:05:39 53° N 18:08:15 21° ENE
Unknown 3.1 18:02:29 10° WNW 18:06:00 88° NNE 18:08:00 24° ESE
COBE Rocket 4.2 18:01:14 10° N 18:06:26 78° WNW 18:11:29 10° SSW
Unknown 4.1 18:03:13 10° W 18:07:17 52° N 18:09:49 21° ENE
CZ-2D R/B 3.4 18:04:37 10° SSE 18:08:20 49° ENE 18:12:07 10° N
Unknown 4.1 18:04:55 10° W 18:08:58 52° N 18:11:26 22° ENE
Cosmos 1300 3.5 18:06:11 10° SSE 18:09:30 29° E 18:12:49 10° NNE
SJ 16-02 2.7 18:06:46 10° N 18:10:03 20° NE 18:10:34 20° ENE
Unknown 4.1 18:06:34 10° W 18:10:38 52° N 18:13:01 23° ENE
Cosmos 1461 3.0 18:09:24 10° NW 18:13:28 72° SW 18:17:40 10° SSE
COSMO-SKYMED 1 2.6 18:09:29 10° NNE 18:13:51 83° WNW 18:18:11 10° SSW
Unknown 4.1 18:09:58 10° W 18:14:02 52° N 18:16:16 24° ENE
Unknown 3.9 18:10:46 10° WNW 18:14:35 51° N 18:16:22 28° ENE
Unknown 4.1 18:11:08 10° W 18:15:12 51° N 18:17:22 25° ENE
Unknown 4.1 18:11:49 10° W 18:15:52 51° N 18:18:00 25° ENE
Unknown 4.1 18:12:10 10° WNW 18:16:07 50° N 18:18:05 26° ENE
Cosmos 1339 Rocket 4.4 18:10:34 10° S 18:16:38 80° E 18:22:50 10° NNE
Unknown 4.1 18:13:30 10° W 18:17:34 51° N 18:19:37 26° ENE
Cosmos 2082 Rocket 2.1 18:12:45 10° NNW 18:18:31 77° ENE 18:24:12 10° SSE
Unknown 4.1 18:15:43 10° WNW 18:19:43 50° N 18:21:37 27° ENE
CSL-04 Debris 4.4 18:14:34 10° SSE 18:20:02 77° WSW 18:25:34 10° NNW
Ariane Rocket 3.0 18:15:13 10° SSE 18:20:12 57° ENE 18:25:14 10° N
Cosmos 1459 Rocket 4.2 18:14:18 10° N 18:20:16 46° ENE 18:26:17 10° SE
Unknown 4.1 18:16:39 10° W 18:20:42 51° N 18:22:39 27° ENE
Unknown 4.1 18:19:57 10° W 18:24:00 51° N 18:25:48 29° ENE
NOSS 3-2 (A) 3.7 18:19:56 10° S 18:25:24 45° ESE 18:29:49 18° NE
Cosmos 2084 Rocket 3.4 18:21:00 10° NW 18:25:27 73° NE 18:27:37 29° SE
CZ-4 R/B 2.4 18:21:23 10° S 18:25:27 50° W 18:29:36 10° NNW
Unknown 4.1 18:21:38 10° WNW 18:25:41 51° N 18:27:25 30° ENE
ATLAS CENTAUR R/B 3.6 18:23:18 10° NNW 18:25:57 15° NNE 18:27:18 13° NE
Unknown 4.1 18:23:17 10° WNW 18:27:20 51° N 18:28:59 31° ENE
Unknown 4.1 18:24:58 10° WNW 18:29:01 51° N 18:30:35 32° ENE
Cosmos 1605 Rocket 4.3 18:22:56 10° NNW 18:29:04 68° W 18:35:07 10° S
Cosmos 1844 Rocket 4.4 18:26:54 10° WSW 18:31:52 31° NW 18:36:50 10° NNE
NOSS 3-3 (A) 4.5 18:24:33 10° NW 18:31:58 88° NE 18:39:06 15° SE
NOSS 3-3 (C) 4.5 18:24:39 10° NW 18:32:04 88° NE 18:39:08 15° SE
HJ-1C 3.4 18:32:27 52° E 18:32:39 53° ENE 18:35:57 10° N
Cosmos 44 4.3 18:29:02 10° S 18:32:32 27° SE 18:32:32 27° SE
Cosmos 1937 Rocket 4.0 18:30:45 10° N 18:35:32 37° ENE 18:36:31 34° E
Unknown 4.1 18:31:38 10° WNW 18:35:41 51° N 18:36:58 36° NE
Unknown 4.1 18:33:20 10° WNW 18:37:24 51° N 18:38:36 37° NE
Cosmos 990 Rocket 4.2 18:32:45 10° NNW 18:37:48 48° ENE 18:39:26 36° ESE
Okean 3 Rocket 4.0 18:34:19 10° N 18:38:39 42° ENE 18:38:58 41° E
Unknown 4.1 18:34:57 10° WNW 18:39:00 51° N 18:40:08 38° NE
Resurs 01 Rocket 3.8 18:42:28 13° NNE 18:42:28 13° NNE 18:43:21 10° NNE
Unknown 4.1 18:36:38 10° WNW 18:40:41 51° N 18:41:45 39° NE
Unknown 4.1 18:38:18 10° WNW 18:42:21 51° N 18:43:21 41° NE
Cosmos 1727 Rocket 3.9 18:36:18 10° S 18:42:30 86° E 18:48:42 10° N
In-Cosmos 22 Rocket 4.1 18:37:59 10° N 18:43:20 61° ENE 18:46:48 23° SSE
Unknown 4.1 18:41:38 10° WNW 18:45:42 51° N 18:46:33 43° NE
Starlink (trailer) 4.0 18:43:18 10° WNW 18:47:21 51° N 18:48:08 44° NE
Cosmos 2173 Rocket 3.9 18:41:11 10° N 18:47:27 70° ENE 18:53:36 10° SSE
Cosmos 1076 Rocket 3.6 18:43:44 10° NNW 18:48:07 80° W 18:52:27 10° S
Unknown 4.0 18:44:58 10° WNW 18:49:03 51° N 18:49:44 45° NE
NOSS 3-2 (C) 3.6 18:45:02 10° S 18:50:30 44° ESE 18:51:57 38° E
Unknown 4.0 18:46:38 10° WNW 18:50:43 52° N 18:51:21 47° NE
SJ-6B 4.3 18:52:53 23° NNE 18:52:53 23° NNE 18:54:36 10° N
Cosmos 1802 Rocket 4.0 18:46:38 10° N 18:53:04 65° ENE 18:57:43 19° SSE
ADEOS Rocket 3.8 18:46:31 10° NNE 18:53:38 39° E 19:00:16 10° SSE
ATLAS 5 CENTAUR R/B 3.8 18:50:31 10° WNW 18:54:09 22° NNW 18:57:39 12° NNE
Cosmos 1812 Rocket 3.8 18:51:01 10° SSW 18:55:27 72° W 18:59:56 10° N
Unknown 3.9 18:52:40 10° WNW 18:56:44 52° N 18:57:05 51° NNE
Unknown 3.9 18:53:18 10° WNW 18:57:22 52° N 18:57:43 51° NNE
SPOT 3 Rocket 3.7 18:57:17 49° E 18:57:45 50° ENE 19:02:47 10° N
Unknown 3.9 18:54:46 10° WNW 18:58:52 53° N 18:59:09 51° NNE
Cosmos 2123 Rocket 4.3 19:01:06 41° ENE 19:01:06 41° ENE 19:06:25 10° NNE
Unknown 3.9 18:56:35 10° WNW 19:00:40 53° N 19:00:54 52° NNE
Cosmos 2278 Rocket 2.8 18:55:14 10° SW 19:00:50 58° NW 19:06:28 10° NNE
Abrixas rocket 3.5 18:58:02 10° WSW 18:59:58 34° WSW 18:59:58 34° WSW
Unknown 4.5 18:59:02 10° WNW 19:02:07 33° SW 19:02:08 33° SW
Unknown 3.9 18:58:20 10° WNW 19:02:25 53° N 19:02:32 53° NNE
Cosmos 2297 3.7 18:57:52 10° S 19:03:26 57° ESE 19:04:47 46° ENE
Unknown 3.9 19:00:07 10° WNW 19:04:12 54° N 19:04:14 54° N
Unknown 3.6 19:03:08 10° WNW 19:06:23 65° WNW 19:06:23 65° WNW
Cosmos 2058 3.2 19:03:12 10° NNW 19:07:24 68° W 19:08:58 37° SSW
Unknown 4.0 19:03:26 10° WNW 19:07:25 54° N 19:07:25 54° N
Unknown 4.0 19:03:35 10° WNW 19:07:33 54° N 19:07:33 54° N
FALCON 9 DEB 4.5 19:04:37 10° WNW 19:07:36 34° SW 19:07:36 34° SW
Cosmos 1725 Rocket 4.0 19:02:44 10° N 19:08:57 58° ENE 19:10:07 50° ESE
Unknown 4.0 19:05:00 10° WNW 19:08:54 54° N 19:08:54 54° N
Cosmos 1000 Rocket 4.3 19:03:22 10° S 19:09:33 77° E 19:15:50 10° NNE
Unknown 4.1 19:08:13 10° WNW 19:12:00 53° N 19:12:00 53° N
Cosmos 2151 3.6 19:08:33 10° N 19:11:41 45° N 19:11:41 45° N
Cosmos 2100 Rocket 4.1 19:07:05 10° NNW 19:13:17 75° W 19:19:24 10° S
H-2A R/B 2.1 19:14:06 60° ENE 19:14:06 60° ENE 19:19:24 10° N
Unknown 4.2 19:11:37 10° WNW 19:15:16 52° NNW 19:15:16 52° NNW
Lacrosse 5 3.0 19:11:56 10° WNW 19:16:37 38° SW 19:18:16 30° S
Unknown 4.2 19:13:20 10° WNW 19:16:54 51° NNW 19:16:54 51° NNW
Unknown 4.3 19:15:00 10° WNW 19:18:30 51° NNW 19:18:30 51° NNW
ATLAS 3B R/B 2.9 19:14:11 10° SSW 19:19:45 47° SE 19:19:45 47° SE
Unknown 4.3 19:16:40 10° WNW 19:20:06 50° NNW 19:20:06 50° NNW
ARGOS 3.1 19:23:54 64° NE 19:23:54 64° NE 19:28:57 10° N
Cosmos 1892 4.5 19:19:58 10° N 19:21:41 25° N 19:21:41 25° N
Unknown 4.4 19:20:02 10° WNW 19:23:18 48° NW 19:23:18 48° NW
Cosmos 1898 Rocket 3.6 19:19:13 10° NNW 19:24:30 73° WSW 19:25:34 55° S
Unknown 4.5 19:21:44 10° WNW 19:24:57 47° NW 19:24:57 47° NW
CENTAUR R/B 2.8 19:23:31 10° SSW 19:28:05 49° SSE 19:28:05 49° SSE
Cosmos 2016 Rocket 4.0 19:25:41 10° N 19:31:59 83° W 19:34:31 39° S
SL-08 R/B 4.3 19:33:24 10° N 19:39:33 85° W 19:40:27 67° S
SJ 16-02 2.7 19:44:42 10° NNW 19:47:34 37° NW 19:47:34 37° NW
USA 238 DEB 4.1 19:45:46 10° WSW 19:52:25 59° NW 19:55:39 32° NNE
USA 238 4.1 19:45:52 10° WSW 19:52:31 59° NW 19:55:43 32° NNE
CZ-2C R/B 3.8 20:03:09 54° NNW 20:03:09 54° NNW 20:07:31 10° NNW
Cosmos 2082 Rocket 4.5 19:57:55 10° NW 20:01:57 20° W 20:05:57 10° SW
Cosmos 2297 Rocket 4.5 20:01:32 10° N 20:03:06 13° NNE 20:03:06 13° NNE
ATLAS CENTAUR R/B 3.8 20:01:55 10° NNW 20:03:29 19° NNW 20:03:29 19° NNW
NOSS 3-2 (A) 4.2 20:10:24 10° WSW 20:16:13 50° NW 20:17:15 46° N
Resurs 01 Rocket 4.2 20:20:03 16° NNW 20:20:03 16° NNW 20:21:00 10° NNW
ADEOS Rocket 4.0 20:31:52 10° N 20:39:21 55° WNW 20:46:19 10° SW
ATLAS 5 CENTAUR R/B 4.3 20:37:04 10° NW 20:39:10 17° NNW 20:39:10 17° NNW
H-2A R/B 4.2 20:54:44 23° WNW 20:54:44 23° WNW 20:58:11 10° NW
ATLAS 3B R/B 4.5 21:04:55 10° WSW 21:07:05 21° WSW 21:07:05 21° WSW
